Showing default

HULIANWANG DIGUI-71, 65231

Orbit data source: Space-Track

HULIANWANG DIGUI-71, 65231 is a payload satellite owned by Zhongguo Xingwang (CN) in LEO that was launched on Sun, 17 Aug 2025 UTC via a CHANG ZHENG 6A launch vehicle from the Taiyaun Space Center, China (TSC). Payload-class satellites include a variety of spacecraft equipped with specific instruments for various scientific and technological missions. These include communications satellites like Starlink; space stations such as the ISS; scientific satellites like the Hubble; Earth observation satellites from companies like Planet Labs, Umbra, and HawkEye 360; GPS; miniature CubeSats for education and research; and military/defense satellites.

Loading next visibility...
Identifier
65231, 2025-178D
Orbit
LEO
Country
Flag of CNCN / PRC
Related business
Manufacturer
CAST
Mission
Operational Civil Communications
Bus & Motor
XINGWANG C, Unknown motor
Mass
~800 kg wet, ~800 kg dry
Launch date (UTC)
2025-08-17 (10 months ago)
Launch vehicle
CHANG ZHENG 6A
Launch site
Taiyaun Space Center, China (TSC)
Object type
Payload
Rocket body
Debris
Shape & HBR
Box + 2 Pan, 2.4 m
Radar Cross Section
5.935 m², Large (>1 m²)

Expand to show TLE details & history
Last TLE update: 11 hours ago

TLE from 11 hours ago
0 HULIANWANG DIGUI-71
1 65231U 25178D   26171.43196097  .00000043  00000-0  65355-4 0  9991
2 65231  86.4997  12.4654 0001963  92.0333 268.1026 13.24410702 40747
Epoch: 2026-06-20T10:22Z
TLE epoch observation values (Epoch: 2026-06-20T10:22:01.427Z)
Latitude
-0.00002°
Longitude
-51.68722°
Altitude
1,170.863 km
Speed
7.268 km/s
True Right ascension
00h 49m 51s
True Declination
0° 00' 00"
Sunlit
Object was in daylight at epoch
Visualization orbit readout
Latitude
Unknown
Longitude
Unknown
Altitude
Unknown
Speed
Unknown
Apparent Right ascension
Unknown
Apparent Declination
Unknown
Sunlit
N/A
Visualization observer readout
Local Sidereal Time
08:32:48
Azimuth
Unknown
Elevation
Unknown
Doppler factor
Unknown
Orbital elements
Apogee altitude
1,166.52 km
Perigee altitude
1,163.559 km
Semi-major axis
7,543.176 km
Eccentricity
0.0002
Inclination
86.4997°
RAAN
12.4654°
Arg. of periapsis
92.0333°
True anomaly
268.08012°
Mean anomaly
268.1026°
Eccentric anomaly
268.09136°
Mean motion
3.31293 °/min
Orbital period
108.67 mins
BSTAR
0.000065355
Loading maneuver chart data...
Computing Atmospheric mass density...
Loading historical data...
Loading historical data...
Loading historical data...
Loading historical data...
Loading historical data...
Loading historical data...
Loading historical data...

Documentation

Showing up to 5 results
|